Location: Peebles
(55.6412°N, 3.1714°W)
Time: 08:42:30
(UTC+00:00)

deb Kosmos-1275 - Visible Passes

Search period start: 28 November 2023 00:00
Search period end: 08 December 2023 00:00
Orbit: 807 x 839 km, 82.9° (Epoch: 27 November)

Date Brightness Start Highest point End Pass type
(mag) Time Alt. Az. Time Alt. Az. Time Alt. Az.
28 Nov ? 04:13:11 10° SSE 04:17:53 32° E 04:22:36 10° NNE visible
28 Nov ? 05:54:32 10° SSW 05:59:49 53° WNW 06:05:07 10° N visible
28 Nov ? 18:06:26 10° NW 18:08:09 11° WNW 18:09:52 10° W visible
29 Nov ? 03:53:33 10° SE 03:57:56 26° E 04:02:20 10° NNE visible
29 Nov ? 05:34:18 10° SSW 05:39:40 64° WNW 05:45:04 10° N visible
29 Nov ? 07:19:49 10° W 07:22:58 15° NW 07:26:08 10° NNW visible
29 Nov ? 17:45:29 10° NW 17:48:17 14° WNW 17:51:06 10° WSW visible
30 Nov ? 03:34:01 10° SE 03:37:59 21° E 03:41:58 10° NNE visible
30 Nov ? 05:14:07 10° SSW 05:19:32 79° WNW 05:24:58 10° N visible
30 Nov ? 06:58:57 10° W 07:02:38 18° NW 07:06:20 10° NNW visible
30 Nov ? 17:24:52 10° NW 17:28:23 18° WNW 17:31:54 10° WSW visible
01 Dec ? 03:15:24 12° ESE 03:18:04 17° ENE 03:21:30 10° NE visible
01 Dec ? 04:57:03 35° S 04:59:24 86° ESE 05:04:51 10° NNE visible
01 Dec ? 06:38:42 12° WSW 06:42:18 22° WNW 06:46:26 10° N visible
01 Dec ? 17:04:24 10° NNW 17:08:27 22° W 17:12:30 10° SW visible
02 Dec ? 02:57:37 14° E 02:58:09 14° ENE 03:00:51 10° NE visible
02 Dec ? 04:39:09 70° ESE 04:39:18 70° E 04:44:42 10° NNE visible
02 Dec ? 06:20:41 23° W 06:21:59 26° WNW 06:26:28 10° N visible
02 Dec ? 16:44:01 10° NNW 16:48:28 26° W 16:52:57 10° SW visible
03 Dec ? 02:38:53 11° ENE 02:38:53 11° ENE 02:39:48 10° NE visible
03 Dec ? 04:20:23 46° NE 04:20:23 46° NE 04:24:30 10° NNE visible
03 Dec ? 06:01:53 30° WNW 06:01:53 30° WNW 06:06:28 10° N visible
03 Dec ? 16:23:41 10° NNW 16:28:28 32° W 16:33:15 10° SSW visible
04 Dec ? 04:01:16 30° NE 04:01:16 30° NE 04:04:16 10° NNE visible
04 Dec ? 05:42:45 32° NW 05:42:45 32° NW 05:46:24 10° N visible
05 Dec ? 03:41:56 22° NE 03:41:56 22° NE 03:43:59 10° NNE visible
05 Dec ? 05:23:24 29° NNW 05:23:24 29° NNW 05:26:19 10° N visible
05 Dec ? 07:04:52 11° NW 07:04:52 11° NW 07:06:25 10° NNW visible
06 Dec ? 03:22:27 16° NE 03:22:27 16° NE 03:23:40 10° NNE visible
06 Dec ? 05:03:54 25° N 05:03:54 25° N 05:06:12 10° N visible
06 Dec ? 06:45:22 13° NW 06:45:22 13° NW 06:46:56 10° NNW visible
06 Dec ? 17:07:13 10° NW 17:09:13 12° WNW 17:11:13 10° W visible
07 Dec ? 03:02:51 12° NNE 03:02:51 12° NNE 03:03:16 10° NNE visible
07 Dec ? 04:44:18 21° N 04:44:18 21° N 04:46:03 10° N visible
07 Dec ? 06:25:46 14° NNW 06:25:46 14° NNW 06:27:10 10° NNW visible
07 Dec ? 16:46:16 10° NW 16:49:15 15° WNW 16:52:15 10° WSW visible
